Location: Home
(42.5358°N, 72.7383°W)
Time: 23:33:19
(UTC-04:00)

DELTA 1 DEB - Pass Details

Date: 03 July 2022
Orbit: 600 x 774 km, 98.5° (Epoch: 16 August)

Event Time Altitude Azimuth Distance (km) Brightness Sun altitude
Exits shadow 21:33:20 10° 110° (ESE) 2,294 ? -9.7°
Reaches altitude 10° 21:33:22 10° 110° (ESE) 2,288 ? -9.7°
Maximum altitude 21:37:00 20° 64° (ENE) 1,663 ? -10.2°
Drops below altitude 10° 21:40:34 10° 17° (NNE) 2,238 ? -10.7°
Sets 21:43:18 0° 2° (N) 3,133 ? -11.0°
